GLOBALSTAR M085 [+]

Last updated on July 6, 2021, 3:36 p.m. UTC

1 37742U 11033D   21186.75532323 -.00000104  00000-0 -25384-5 0  9993
2 37742  51.9878 296.8483 0000619 125.1239  30.2556 12.62266030461563
UTC
Height (km)
Latitude
Longitude
Inclination
Orbital Period
UTC large
Height (km)
Speed (km/s)
/
Latitude / Longitude
Inclination (degrees)
Orbital Period (minutes)
Azimuth
Elevation
Range (km)
Doppler Factor
iOS Compass Heading
iOS Angle